Charlevoix, MI

12:26 PM EST on February 14, 2016 (GMT -0500)
Charlevoix Municipal

Weather History for KCVX - August, 2012

Change the Weather History Date:

Monday, August 6, 2012

  Actual Average Record
Temperature  
Mean Temperature 66 °F -  
Max Temperature 77 °F 84 °F 89 °F (2001)
Min Temperature 56 °F 61 °F 53 °F (2014)
Cooling Degree Days 2    
Growing Degree Days 16 (Base 50)    
Moisture  
Dew Point 55 °F    
Average Humidity 63    
Maximum Humidity 84    
Minimum Humidity 39    
Precipitation  
Precipitation 0.00 in - - ()
Sea Level Pressure  
Sea Level Pressure 30.08 in    
Wind  
Wind Speed 6 mph (SW)    
Max Wind Speed 21 mph    
Max Gust Speed 29 mph    
Visibility 10 miles    
Events      
Averages and records for this station are not official NWS values.
T = Trace of Precipitation, MM = Missing Value Source: NWS Daily Summary

Daily Weather History Graph

Daily Weather History Graph

Search for Another Location

Airport or City:

Trip Planner

Search our weather history database for the weather conditions in past years. The results will help you decide how hot, cold, wet, or windy it might be!

Date:

Astronomy

Aug. 06, 2012 Rise Set
Actual Time 6:31 AM EDT 9:01 PM EDT
Civil Twilight 5:58 AM EDT 9:34 PM EDT
Nautical Twilight 5:17 AM EDT 10:15 PM EDT
Astronomical Twilight 4:29 AM EDT 11:02 PM EDT
Moon 10:50 PM EDT (8/6) 11:38 AM EDT (8/6)
Length of Visible Light 15h 35m
Length of Day
14h 29m
Waning Gibbous, 78% of the Moon is Illuminated
Aug 6
Waning Gibbous
Aug 9
Last Quarter
Aug 17
New
Aug 24
First Quarter
Aug 31
Full

Hourly Weather History & Observations

Time (EDT) Temp. Dew Point Humidity Pressure Visibility Wind Dir Wind Speed Gust Speed Precip Events Conditions
12:14 AM 56.8 °F 50.0 °F 78% 30.13 in 10.0 mi Calm Calm - N/A   Clear
12:34 AM 56.8 °F 50.2 °F 78% 30.14 in 10.0 mi Calm Calm - N/A   Clear
12:55 AM 57.4 °F 50.7 °F 78% 30.14 in 10.0 mi Calm Calm - N/A   Clear
1:14 AM 57.2 °F 50.9 °F 79% 30.14 in 10.0 mi Calm Calm - N/A   Clear
1:34 AM 56.1 °F 50.9 °F 83% 30.14 in 10.0 mi Calm Calm - N/A   Clear
1:54 AM 57.2 °F 50.7 °F 79% 30.14 in 10.0 mi Calm Calm - N/A   Clear
2:14 AM 58.1 °F 49.5 °F 73% 30.14 in 10.0 mi South 4.6 mph - N/A   Clear
2:34 AM 58.3 °F 49.5 °F 72% 30.14 in 10.0 mi South 3.5 mph - N/A   Clear
2:54 AM 57.9 °F 49.5 °F 73% 30.14 in 10.0 mi South 4.6 mph - N/A   Clear
3:14 AM 57.9 °F 49.5 °F 73% 30.14 in 10.0 mi South 6.9 mph - N/A   Clear
3:34 AM 57.4 °F 49.6 °F 75% 30.13 in 10.0 mi SSE 5.8 mph - N/A   Clear
3:54 AM 57.2 °F 50.0 °F 77% 30.13 in 10.0 mi SSE 4.6 mph - N/A   Clear
4:14 AM 58.1 °F 49.5 °F 73% 30.13 in 10.0 mi SE 5.8 mph - N/A   Clear
4:34 AM 57.2 °F 50.9 °F 79% 30.13 in 10.0 mi ESE 4.6 mph - N/A   Clear
4:54 AM 56.7 °F 50.9 °F 81% 30.12 in 10.0 mi ESE 4.6 mph - N/A   Clear
5:15 AM 56.7 °F 50.4 °F 79% 30.12 in 10.0 mi ESE 3.5 mph - N/A   Clear
5:34 AM 56.3 °F 50.4 °F 80% 30.12 in 10.0 mi ESE 4.6 mph - N/A   Clear
5:54 AM 56.7 °F 50.4 °F 79% 30.12 in 10.0 mi ESE 3.5 mph - N/A   Clear
6:15 AM 57.2 °F 51.1 °F 80% 30.11 in 10.0 mi Calm Calm - N/A   Clear
6:34 AM 57.7 °F 52.7 °F 83% 30.12 in 10.0 mi Calm Calm - N/A   Clear
6:54 AM 58.3 °F 53.6 °F 84% 30.12 in 10.0 mi SE 3.5 mph - N/A   Clear
7:15 AM 60.6 °F 55.4 °F 83% 30.12 in 10.0 mi South 5.8 mph - N/A   Clear
7:34 AM 63.0 °F 57.0 °F 81% 30.12 in 10.0 mi South 6.9 mph - N/A   Clear
7:54 AM 64.6 °F 57.9 °F 79% 30.12 in 10.0 mi South 9.2 mph - N/A   Clear
8:15 AM 65.8 °F 58.5 °F 77% 30.12 in 10.0 mi South 6.9 mph - N/A   Clear
8:34 AM 67.5 °F 59.2 °F 75% 30.12 in 10.0 mi South 5.8 mph - N/A   Clear
8:54 AM 69.1 °F 60.1 °F 73% 30.12 in 10.0 mi South 5.8 mph - N/A   Clear
9:14 AM 70.9 °F 61.2 °F 71% 30.12 in 10.0 mi South 6.9 mph - N/A   Clear
9:34 AM 71.6 °F 61.9 °F 71% 30.12 in 10.0 mi SSW 5.8 mph - N/A   Clear
9:54 AM 73.4 °F 61.3 °F 66% 30.12 in 10.0 mi SW 6.9 mph - N/A   Clear
10:14 AM 74.5 °F 55.0 °F 51% 30.12 in 10.0 mi WSW 11.5 mph - N/A   Clear
10:34 AM 75.6 °F 56.7 °F 52% 30.12 in 10.0 mi WSW 11.5 mph - N/A   Clear
10:55 AM 75.6 °F 56.1 °F 51% 30.12 in 10.0 mi WSW 12.7 mph 18.4 mph N/A   Clear
11:14 AM 76.8 °F 56.5 °F 49% 30.11 in 10.0 mi WSW 9.2 mph 17.3 mph N/A   Clear
11:34 AM 76.8 °F 57.2 °F 51% 30.11 in 10.0 mi West 15.0 mph - N/A   Clear
11:55 AM 76.8 °F 57.2 °F 51% 30.11 in 10.0 mi West 15.0 mph - N/A   Clear
12:14 PM 76.6 °F 55.2 °F 47% 30.10 in 10.0 mi West 16.1 mph - N/A   Clear
12:34 PM 77.4 °F 55.2 °F 46% 30.10 in 10.0 mi West 16.1 mph 21.9 mph N/A   Clear
12:55 PM 77.0 °F 56.3 °F 49% 30.10 in 10.0 mi WSW 16.1 mph 21.9 mph N/A   Clear
1:14 PM 77.4 °F 54.9 °F 46% 30.10 in 10.0 mi West 17.3 mph - N/A   Clear
1:34 PM 77.4 °F 53.1 °F 43% 30.09 in 10.0 mi WSW 18.4 mph 24.2 mph N/A   Clear
1:55 PM 77.9 °F 50.9 °F 39% 30.08 in 10.0 mi West 19.6 mph 25.3 mph N/A   Clear
2:14 PM 77.9 °F 53.4 °F 43% 30.08 in 10.0 mi West 13.8 mph - N/A   Clear
2:34 PM 77.9 °F 54.3 °F 44% 30.08 in 10.0 mi West 16.1 mph 23.0 mph N/A   Clear
2:54 PM 77.4 °F 52.3 °F 42% 30.07 in 10.0 mi West 20.7 mph 25.3 mph N/A   Clear
3:14 PM 77.0 °F 52.0 °F 42% 30.07 in 10.0 mi West 17.3 mph 26.5 mph N/A   Clear
3:34 PM 77.5 °F 54.1 °F 44% 30.07 in 10.0 mi West 16.1 mph 25.3 mph N/A   Clear
3:54 PM 76.8 °F 54.9 °F 46% 30.06 in 10.0 mi West 18.4 mph 27.6 mph N/A   Clear
4:14 PM 77.0 °F 53.8 °F 44% 30.05 in 10.0 mi West 20.7 mph 28.8 mph N/A   Clear
4:34 PM 77.5 °F 54.3 °F 44% 30.05 in 10.0 mi West 17.3 mph 23.0 mph N/A   Clear
5:14 PM 77.4 °F 54.9 °F 46% 30.04 in 10.0 mi WSW 12.7 mph 20.7 mph N/A   Clear
5:35 PM 76.8 °F 54.7 °F 46% 30.03 in 10.0 mi WSW 16.1 mph 23.0 mph N/A   Clear
5:54 PM 76.8 °F 54.9 °F 46% 30.03 in 10.0 mi SW 12.7 mph 20.7 mph N/A   Clear
6:14 PM 76.3 °F 54.9 °F 47% 30.02 in 10.0 mi SW 15.0 mph 21.9 mph N/A   Clear
6:35 PM 76.1 °F 54.5 °F 47% 30.02 in 10.0 mi SW 13.8 mph 19.6 mph N/A   Clear
6:54 PM 75.7 °F 54.7 °F 48% 30.01 in 10.0 mi SW 12.7 mph 17.3 mph N/A   Clear
7:14 PM 75.6 °F 55.0 °F 49% 30.01 in 10.0 mi SW 12.7 mph 18.4 mph N/A   Clear
7:34 PM 75.2 °F 54.7 °F 49% 30.01 in 10.0 mi SW 11.5 mph 17.3 mph N/A   Clear
7:54 PM 74.7 °F 55.6 °F 51% 30.00 in 10.0 mi SW 11.5 mph - N/A   Clear
8:14 PM 73.9 °F 57.2 °F 56% 30.01 in 10.0 mi SW 8.1 mph - N/A   Clear
8:34 PM 72.9 °F 57.4 °F 58% 30.00 in 10.0 mi SW 6.9 mph - N/A   Clear
8:54 PM 71.8 °F 57.4 °F 60% 30.00 in 10.0 mi SSW 6.9 mph - N/A   Clear
9:14 PM 70.9 °F 57.4 °F 62% 29.99 in 10.0 mi SSW 5.8 mph - N/A   Clear
9:34 PM 70.0 °F 57.7 °F 65% 29.99 in 10.0 mi SSW 5.8 mph - N/A   Clear
9:54 PM 69.3 °F 58.1 °F 68% 29.99 in 10.0 mi SSW 5.8 mph - N/A   Clear
10:15 PM 68.5 °F 58.1 °F 69% 29.99 in 10.0 mi SSW 5.8 mph - N/A   Clear
10:34 PM 69.4 °F 57.9 °F 67% 29.98 in 10.0 mi SSW 6.9 mph - N/A   Clear
10:54 PM 69.3 °F 58.1 °F 68% 29.98 in 10.0 mi SSW 8.1 mph - N/A   Clear
11:15 PM 69.3 °F 58.3 °F 68% 29.97 in 10.0 mi SSW 6.9 mph - N/A   Clear
11:34 PM 69.1 °F 59.0 °F 70% 29.97 in 10.0 mi SSW 9.2 mph - N/A   Clear
11:54 PM 69.4 °F 59.4 °F 70% 29.96 in 10.0 mi SSW 10.4 mph - N/A   Clear